www.pogodaiklimat.ru

Погода и климат >> Архив погоды >> Кувейт >> Jahra


ПОГОДА в Jahra

  • Прогноз погоды в Jahra
  • Монитор погоды в Jahra
  • Климат города

АРХИВ ПОГОДЫ в Jahra

Время (UTC), дата Ветер
(напр.,м/с)
 
Видим.   Явления Облачность Т
(С)
Тd
(С)
f
(%)
Тe
(С)
Тes
(С)
Комфортность P
(гПа)
Po
(гПа)
Тmin
(С)
Tmax
(С)
R
(мм)
R24
(мм)
S
(см)
00 15.02 СЗ 1-4
{5}
н/о н/о +14.7 +4.3 50 +15 +15 1022.4 1022.0
03 15.02 СЗ 1-3
{4}
н/о н/о +13.9 +5.4 56 +14 +14 1023.2 1023.0
06 15.02 С 1-2
{4}
н/о н/о +18.0 +5.0 42 +20 +20 1024.3 1024.0
09 15.02 ЮВ 1-2
{4}
н/о н/о +23.0 +3.8 29 +23 +23 комфорт 1023.5 1024.0
12 15.02 СВ 3-5
{7}
н/о н/о +23.8 +1.5 23 +23 +23 комфорт 1021.4 1021.0
15 15.02 В 2-4
{7}
н/о н/о +20.9 +3.0 31 +22 +22 комфорт 1021.1 1021.0
18 15.02 СВ 3-5
{9}
н/о н/о +20.1 +3.7 34 +21 +21 комфорт 1019.5 1020.0
21 15.02 ЮЗ 1-3
{5}
н/о н/о +18.8 +3.6 36 +20 +20 1022.4 1022.0 +13.8 +23.9
00 16.02 СВ 2-3
{5}
н/о н/о +17.5 +6.6 49 +18 +18 1020.8 1021.0
03 16.02 В 1-2
{4}
н/о н/о +15.5 +5.2 50 +16 +16 1021.5 1022.0
06 16.02 С 3-4
{4}
н/о н/о +18.7 +6.3 44 +19 +19 1022.0 1022.0
09 16.02 В 3-6
{6}
н/о н/о +24.7 +9.4 38 +25 +25 комфорт 1020.2 1020.0
12 16.02 В 3-5
{6}
н/о н/о +26.6 +3.8 23 +25 +25 комфорт 1017.9 1018.0
15 16.02 ЮВ 3-5
{8}
н/о н/о +22.8 +9.1 42 +24 +24 комфорт 1017.4 1017.0
18 16.02 ЮВ 2-3
{8}
н/о н/о +20.2 +12.6 62 +23 +23 комфорт 1017.6 1018.0
21 16.02 ЮВ 4-6
{6}
н/о н/о +18.9 +14.3 75 +20 +20 1016.5 1017.0 +15.4 +26.8
00 17.02 ЮВ 2-3
{6}
н/о н/о +18.0 +13.6 75 +19 +19 1015.8 1016.0
03 17.02 ЮВ 1-2
{4}
н/о н/о +16.6 +13.5 82 +17 +17 1016.0 1016.0
06 17.02 ЮВ 4-6
{7}
н/о н/о +21.4 +14.7 66 +24 +24 комфорт 1017.0 1017.0
09 17.02 Ю 5-11
{13}
н/о н/о +30.8 +4.6 19 +29 +29 жарко 1013.8 1014.0
12 17.02 Ю 3-7
{14}
н/о н/о +32.6 -0.3 12 +29 +29 жарко 1010.8 1011.0
15 17.02 В 4-7
{9}
н/о н/о +25.1 +12.2 45 +27 +27 жарко 1010.4 1010.0
18 17.02 ЮВ 3-8
{9}
н/о н/о +22.4 +13.5 57 +25 +25 комфорт 1010.7 1011.0
21 17.02 ЮВ 6-11
{12}
н/о н/о +22.3 +13.1 56 +25 +25 комфорт 1007.7 1008.0 +16.5 +33.0
00 18.02 ЮВ 7-11
{14}
н/о н/о +22.3 +12.8 55 +25 +25 комфорт 1006.7 1007.0
03 18.02 ЮЗ 6-12
{12}
н/о н/о +26.1 +8.7 33 +26 +26 жарко 1007.4 1007.0
06 18.02 ЮЗ 6-11
{15}
н/о н/о +21.0 +4.3 33 +24 +24 комфорт 1012.0 1012.0
09 18.02 З 6-12
{16}
н/о н/о +23.3 +0.7 22 +22 +22 комфорт 1012.7 1013.0
12 18.02 СЗ 3-6
{16}
н/о н/о +24.6 -1.3 18 +23 +23 комфорт 1012.3 1012.0
15 18.02 С 2-4
{8}
н/о н/о +22.0 -1.5 21 +21 +21 комфорт 1013.4 1013.0
18 18.02 СЗ 1-2
{8}
н/о н/о +20.1 -0.9 24 +21 +21 комфорт 1014.6 1015.0
21 18.02 ЮЗ 2-2
{3}
н/о н/о +17.3 -0.7 29 +18 +18 1013.9 1014.0 +17.2 +26.2
00 19.02 ЮЗ 1-2
{3}
н/о н/о +15.7 -1.1 32 +17 +17 1013.4 1013.0
03 19.02 ЮЗ 1-2
{3}
н/о н/о +14.7 +1.2 40 +15 +15 1014.5 1015.0
06 19.02 З 5-9
{9}
н/о н/о +19.0 +1.8 32 +19 +19 1016.2 1016.0
09 19.02 З 6-10
{12}
н/о н/о +22.8 +1.2 24 +22 +22 комфорт 1015.1 1015.0
12 19.02 З 5-8
{13}
н/о н/о +23.9 +0.9 22 +23 +23 комфорт 1014.4 1014.0
15 19.02 З 3-5
{10}
н/о н/о +21.4 +2.4 28 +21 +21 комфорт 1015.6 1016.0
18 19.02 СЗ 1-3
{10}
н/о н/о +18.5 +0.2 29 +20 +20 1016.8 1017.0
21 19.02 СЗ 1-3
{5}
н/о н/о +16.5 +1.9 37 +17 +17 1017.2 1017.0 +14.4 +24.6
00 20.02 З 2-2
{5}
н/о н/о +12.8 +2.3 49 +13 +13 1017.2 1017.0
03 20.02 ЮЗ 2-2
{3}
н/о н/о +10.8 +2.1 55 +10 +10 1017.9 1018.0
06 20.02 З 1-2
{3}
н/о н/о +17.5 +3.6 40 +19 +19 1018.7 1019.0
09 20.02 З 2-3
{4}
н/о н/о +22.3 +2.5 27 +22 +22 комфорт 1017.8 1018.0
12 20.02 СЗ 2-4
{6}
н/о н/о +24.1 +1.6 23 +23 +23 комфорт 1015.3 1015.0
15 20.02 СЗ 1-3
{5}
н/о н/о +21.5 +1.8 27 +21 +21 комфорт 1015.4 1015.0
18 20.02 С 4-7
{7}
н/о н/о +20.3 +2.4 30 +21 +21 комфорт 1015.1 1015.0
21 20.02 С 2-3
{7}
н/о н/о +18.1 +2.6 35 +19 +19 1015.3 1015.0 +10.7 +24.2
00 21.02 ЮЗ 1-1
{7}
н/о н/о +16.0 +2.1 39 +18 +18 1015.1 1015.0
03 21.02 ЮЗ 1-1
{3}
н/о н/о +16.0 +3.1 42 +18 +18 1015.8 1016.0
06 21.02 В 2-2
{3}
н/о н/о +19.1 +4.3 38 +20 +20 1015.8 1016.0
09 21.02 В 2-4
{5}
н/о н/о +24.1 +3.3 26 +23 +23 комфорт 1014.2 1014.0
12 21.02 СВ 3-5
{7}
н/о н/о +23.2 +6.8 35 +24 +24 комфорт 1012.3 1012.0
15 21.02 В 2-4
{6}
н/о н/о +20.1 +6.0 40 +21 +21 комфорт 1011.6 1012.0
18 21.02 ЮВ 2-3
{6}
н/о н/о +18.0 +7.1 49 +19 +19 1012.6 1013.0
21 21.02 ЮВ 3-7
{9}
н/о н/о +18.5 +6.3 45 +19 +19 1010.5 1011.0 +15.6 +24.3

 

Местоположение метеостанции Jahra (Кувейт): широта 29.32 долгота 47.67 высота над уровнем моря 55 м.

В архиве по умолчанию представлена погода в Jahra за последнюю неделю. Архивные данные за месяц целиком и за предыдущие месяцы, начиная с января 2011 года, Вы можете получить, выбрав интересующий диапазон дат из раскрывающегося списка и нажав кнопку "Ввод!".

Внимание! Время в таблицах - всемирное. Для получения местного времени необходимо прибавить поправку, которая в Jahra равна 3 ч.

Смотрите также архив погоды в соседних городах и на ближайших метеорологических станциях:

Погода в Sulaibiya (Кувейт) (7 км)
Погода в Experimental Farm (Кувейт) (26 км)
Погода в Minagish (Кувейт) (31 км)
Погода в Kuwait (Кувейт) (31 км)
Погода в Jal Aliyah (Кувейт) (33 км)
Погода в Kuwait City (Кувейт) (37 км)
Погода в Al-Shuaiba (Кувейт) (42 км)
Погода в Sabriyah (Кувейт) (51 км)
Погода в Failaka Island (Кувейт) (61 км)
Погода в Mitribah (Кувейт) (63 км)

Пояснения к столбцам:

Ветер - указаны скорость ветра в м/с - средняя за 10 мин, порывы в срок и между сроками (в фигурных скобках) и направление, откуда дует ветер: С - северный, СВ - северо-восточный, В - восточный, ЮВ - юго-восточный, Ю - южный, ЮЗ - юго-западный, З - западный, СЗ - северо-западный.
Видимость - горизонтальная дальность видимости в метрах или километрах. При видимости от 1 до 10 км при отсутствии осадков обычно наблюдается дымка, при ухудшении видимости до 1 км и менее - туман. В сухую погоду видимость может ухудшаться дымом, пылью или мглою.
Явления - указаны атмосферные явления, наблюдавшиеся в срок или в последний час перед сроком; фигурными скобками обозначены явления, наблюдавшиеся между сроками (за 1-3 часа до срока); квадратными скобками обозначены град или гололедные отложения с указанием их диаметра в мм.
Облачность - указаны через наклонную черту общая и нижняя облачность в баллах и высота нижней границы облаков в метрах; квадратными скобками обозначены формы облаков: Ci - перистые, Cs - перисто-слоистые, Cc - перисто-кучевые, Ac - высококучевые, As - высокослоистые, Sc - слоисто-кучевые, Ns - слоисто-дождевые, Cu - кучевые, Cb - кучево-дождевые. Подробнее классификацию облаков см. в Атласе облаков (PDF).
T - Температура воздуха - температура, измеренная на высоте 2 м над землей.
Td - Температура точки росы - температура, при понижении до которой содержащийся в воздухе водяной пар достигнет насыщения.
f - Относительная влажность воздуха - влажноcть воздуха, измеренная на высоте 2 м над землей.
Te - Эффективная температура - температура, которую ощущает одетый по сезону человек в тени. Характеристика душности погоды. При расчете учитывается влияние влажности воздуха и скорости ветра на теплоощущения человека.
Tes - Эффективная температура на солнце - температура, которую ощущает человек, с поправкой на солнечный нагрев. Характеристика знойности погоды. Зависит от высоты солнца над горизонтом, облачности и скорости ветра. Ночью, в пасмурную погоду, а также при ветре 12 м/с и более поправка равна нулю.
P - Атмосферное давление - приведенное к уровню моря атмосферное давление.
Po - Атмосферное давление - измеренное на уровне метеостанции атмосферное давление.
Tmin - Минимальная температура - минимум температуры воздуха на высоте 2 м над землей.
Tmax - Максимальная температура - максимум температуры воздуха на высоте 2 м над землей.
R - Количество осадков - Количество выпавших осадков за период времени, мм. При наведении курсора мыши на число - период времени, за который выпало указанное количество осадков.
R24 - Количество осадков - Количество выпавших осадков за 24 часа, мм.
S - Снежный покров - Высота снежного покрова, см. При наведении курсора мыши на число - состояние снежного покрова и степень покрытия местности в баллах.